Orbital Elements at Epoch 2459000.5 (2020-May-31.0) TDB
Reference: JPL 22 (heliocentric ecliptic J2000)
Element | Value | Uncertainty (1-sigma) | Units |
e | .1966912070482604 | 4.9286e-08 | |
a | 2.407604468171903 | 1.1989e-08 | au |
q | 1.934049839232386 | 1.1464e-07 | au |
i | 1.981945367544542 | 4.3644e-06 | deg |
node | 34.97073543490712 | 0.00010785 | deg |
peri | 334.4433865604015 | 0.00010844 | deg |
M | 214.0710180374727 | 1.6208e-05 | deg |
tp | 2459553.614686033014 (2021-Dec-05.11468603) | 6.4702e-05 | TDB |
period | 1364.508162079941 3.74 | 1.0192e-05 2.79e-08 | d yr |
n | .2638313276567333 | 1.9707e-09 | deg/d |
Q | 2.88115909711142 | 1.4347e-08 | au |
|
| | Orbit Determination Parameters
Additional Information
|